Погода в Дальнереченске

Погода в Дальнереченске : погода сейчас, прогноз погоды и архив. Всё, что Вы хотите узнать о погоде в Дальнереченске!

Хотите узнать прогноз погоды в Дальнереченске? Тогда Вам сюда: Погода в Дальнереченске

Поиск расширенной информации на нашем сайте:

Другие новости

Новости СМИ2

Главная страница сайта

Новости сайта

03.07.2017

Напоминаем, что на нашем специализированном сайте Метеоцентр.Азия вы можете получить высокодетализированные автоматические прогнозы погоды по пунктам России, СНГ и мира в авиационном формате (включающие направление и скорость ветра, видимость, явления погоды, количество и форму облачности, нижнюю и верхнюю границу облачности).

Рекомендуем: http://vibromash.com/ трос сантехнический для прочистки канализации купить.

Погода в Дальнереченске - сегодня

Время (UTC), дата Ветер
(°,м/с) 
Видим.   Явления Облачность Т
(°С)
Тd
(°С)
f(%) Тe
(°С)
Pmin
(гПа)
dP
(гПа)
Po
(мм)
O2
(г/м3)
Тmin Tmax R s Состояние
почвы
03 20.10.17 210 (ЮЗ) 2000 м  дымка  10/10 600 м 
[Sc]
+9 +7.8 92 +8  1019.6  -0.8  755  293           
06 20.10.17 220 (ЮЗ) 2000 м  дымка  10/10 600 м 
[Sc]
+10.7 +7.4 80 +11  1018.4  -1.1  755  291           
09 20.10.17 010 (С) 2000 м  слаб. дождь  10/10 600 м 
[Sc]
+8.2 +7 92 +9  1017.9  -0.6  754  294    +11  0.0     
12 20.10.17 180 (Ю) 2000 м  в посл. час дождь  10/10 600 м 
[Sc]
+8.6 +7.6 93 +10  1017.4  -0.4  754  293           
15 20.10.17 160 (Ю) 2000 м  дымка  10/10 600 м 
[Sc]
+9.7 +6.8 82 +10  1015.8  -1.6  753  292           
18 20.10.17 180 (Ю) 2000 м  дымка  10/10 600 м 
[Sc]
+9.2 +7.3 88 +8  1014.6  -1.2  752  292           
21 20.10.17 210 (ЮЗ) 6-10{12}  2000 м  дымка  10/10 600 м 
[Sc]
+10 +8.3 89 +8  1015.4  0.8  752  291  +7.5      влажная 
00 21.10.17 220 (ЮЗ) 4{12}  20000 м    10/10 600 м 
[Sc]
+11 +9.1 88 +10  1016.9  1.6  754  290           
03 21.10.17 300 (СЗ) 0500 м  туман{дождь}  10/10 300 м 
[St]
+4.8 +2.5 85 +3  1019.1  1.9  755  299           
06 21.10.17 280 (З) 20000 м  {дождь, туман}  3/3 600 м 
[Sc]
+5.8 -1.5 59 +5  1020.9  1.8  756  299           
09 21.10.17 330 (СЗ) 10 км    ясно 
+1.5 -5.1 61 +2  1024.1  2.9  758  305    +11  0.6     
12 21.10.17 320 (СЗ) 10 км    ясно 
-1 -8.9 55 1025.8  1.6  760  308           
15 21.10.17 270 (З) 10 км    ясно 
-2.7 -8.2 66 -2  1025.9  760  310           
18 21.10.17 280 (З) 10 км    ясно 
-3.6 -10.8 57 -5  1026.6  0.6  760  311           
21 21.10.17 280 (З) 10 км    ясно 
-4.4 -11.6 57 -6  1027.3  0.7  761  313  -4.4        замёрзшая 
00 22.10.17 220 (ЮЗ) 20000 м    ясно 
-0.5 -8.4 55 -2  1028.8  1.6  762  308  -5.7         
03 22.10.17 280 (З) 20000 м    ясно 
+2.9 -13.2 29 +1  1027.2  -1.3  761  305           
06 22.10.17 290 (З) 20000 м    ясно 
+3.6 -13.5 27 +2  1025.7  -1.5  760  303           
09 22.10.17 310 (СЗ) 10 км    ясно 
-0.7 -11.2 45 1025.5  -0.4  759  308    +3.6       
12 22.10.17 320 (СЗ) 10 км    ясно 
-2.2 -11 51 -2  1025.4  -0.2  759  309           
15 22.10.17 тихо ()   10 км    ясно 
-3.6 -11.2 56 -4  1023.8  -1.6  758  311           
18 22.10.17 260 (З) 10 км    ясно 
-5.5 -11.9 61 -5  1022.3  -1.6  757  312           
21 22.10.17 290 (З) 10 км    ясно 
-5.7 -10.2 70 -8  1020.2  -2  755  312  -7.9        замёрзшая 
00 23.10.17 310 (СЗ) 20000 м    ясно 
-2.8 -9.5 60 -4  1020.8  0.6  756  309           
03 23.10.17 280 (З) 20000 м    ясно 
+2.1 -10.7 38 +1  1018.7  -1.8  755  303           
Время (UTC), дата Ветер
(°,м/с) 
Видим.   Явления Облачность Т
(°С)
Тd
(°С)
f(%) Тe
(°С)
Pmin
(гПа)
dP
(гПа)
Po
(мм)
O2
(г/м3)
Тmin Tmax R s Состояние
почвы

Для получения пояснительной информации подведите курсор к названию столбца.

ПОГОДА в Дальнереченске - архив

Всё, что Вы хотите узнать о погоде в Дальнереченске - удобно и подробно!

Выберите нужную дату (начиная с 1 января 2015* года) и нажмите кнопку "Найти".
Будут отображены архивные сводки погоды по пункту Дальнереченск, начиная с указанной даты.


Отображать данные в формате CSV (для использования в таблицах Excel)


Внимание! Наш архив погоды предназначен исключительно для личного некоммерческого использования в познавательных целях. Если Вам необходимы официальные справки о состоянии погоды (для производственных, юридических, коммерческих и т.п. целей), обращайтесь в органы Росгидромета.

*Примечание: данная дата относится к архиву по метеостанциям СССР (Россия, СНГ, Балтия).
Архив по метеостанциям Зарубежной Европы и Азии (кроме Китая) хранится 10 дней, по другим регионам земного шара (Китай, Африка, Америка, Австралия, Океания) - 1 день.

Дальнереченск - район местоположения метеостанции


Название, широта, долгота, высота метеостанции:
Дальнереченск 45.9°ш. 133.7°д. 101 м над ур. моря [Российская Федерация]

Дополнительная информация

В oтличие oт бoльшинства пoгoдных сайтoв мы публикуем пoдрoбную метеoинфoрмацию в детальнoм прoфессиoнальнoм фoрмате.

Характеристики температуры и влажнoсти вoздуха измеряются на высoте 2 м в тени вдали oт зданий и деревьев.
Скoрoсть ветра измеряется на высoте 10 м (на урoвне рoста челoвека скoрoсть ветра ниже в 1.5-2 раза). Если метеoстанция нахoдится в гoрoде или в лесу, тo скoрoсть ветра занижена на 2-4 м/с пo сравнению с oткрытым местoм. Скoрoсть ветра над акватoриями крупных рек и oзёр, а также на вершинах хoлмoв на 2-5 м/с выше, чем в oбычных услoвиях.
Атмoсфернoе давление в разных тoчках местнoсти мoжет значительнo oтличаться oт давления на метеoстанции, в зависимoсти oт услoвий рельефа (при пoдъёме на 10 м давление пoнижается примернo на 1 мм рт.ст.).